Home   Weather   50°51'N, 4°24'E   Past weeks
Flag for Belgium

Past Weather in 50°51'N, 4°24'E, Belgium — Yesterday and Last 2 Weeks

Now
61 °F

Clear.


Feels Like: 61 °F
Forecast: 90 / 63 °F
Wind: 6 mph from South

Location: Brussels National Airport

Current Time: Jul 22, 2019 at 3:55:42 am

Latest Report: Jul 22, 2019 at 3:20 am


Visibility: 10 mi

Pressure: 30.21 "Hg

Humidity: 88%

Dew Point: 57 °F

Location of 50°51'N, 4°24'ELocation

Past Weather in 50°51'N, 4°24'E — Graph

°F

50°51'N, 4°24'E Temperature Yesterday

Maximum temperature yesterday: 77 °F (at 6:20 pm)
Minimum temperature yesterday: 59 °F (at 4:20 am)
Average temperature yesterday: 67 °F

High & Low Weather Summary for the Past Weeks

 TemperatureHumidityPressure
High81 °F (Jul 20, 1:20 pm)100% (Jul 17, 3:50 am)30.24 "Hg (Jul 17, 3:50 am)
Low45 °F (Jul 9, 4:50 am)38% (Jul 10, 12:50 pm)29.80 "Hg (Jul 20, 6:20 am)
Average63 °F71%30.04 "Hg
* Reported Jul 7 2:20 am — Jul 22 2:20 am, 50°51'N, 4°24'E. Weather by CustomWeather, © 2019

Note: Actual official high and low records may vary slightly from our data, if they occured in-between our weather recording intervals... More about our weather records

Advertising

50°51'N, 4°24'E Weather History for the Previous 24 Hours

Scroll right to see more
 ConditionsComfort  
Time TempWeatherWind HumidityBarometerVisibility
2:20 am
Mon, Jul 22
61 °FClear.5 mph88%30.21 "Hg10 mi
1:50 am59 °FClear.2 mph94%30.21 "Hg10 mi
1:20 am59 °FClear.2 mph94%30.21 "Hg10 mi
12:50 am61 °FClear.2 mph88%30.24 "Hg10 mi
12:20 am61 °FClear.1 mph88%30.24 "Hg10 mi
11:50 pm
Sun, Jul 21
61 °FClear.No wind88%30.24 "Hg10 mi
11:20 pm63 °FClear.1 mph83%30.21 "Hg10 mi
10:50 pm63 °FPassing clouds.3 mph83%30.21 "HgN/A
10:20 pm64 °FPassing clouds.3 mph73%30.21 "HgN/A
9:50 pm66 °FClear.2 mph68%30.21 "Hg10 mi
9:20 pm68 °FSunny.2 mph69%30.21 "Hg10 mi
8:50 pm70 °FSunny.3 mph64%30.21 "Hg10 mi
8:20 pm72 °FPassing clouds.5 mph57%30.18 "HgN/A
7:50 pm75 °FPassing clouds.3 mph47%30.18 "HgN/A
7:20 pm75 °FPassing clouds.5 mph47%30.18 "HgN/A
6:50 pm75 °FPassing clouds.5 mph44%30.18 "HgN/A
6:20 pm77 °FPassing clouds.3 mph42%30.18 "HgN/A
5:50 pm75 °FSunny.7 mph44%30.18 "Hg10 mi
5:20 pm75 °FPassing clouds.8 mph44%30.18 "HgN/A
4:50 pm75 °FPassing clouds.9 mph44%30.18 "HgN/A
4:20 pm75 °FPassing clouds.8 mph41%30.18 "HgN/A
3:20 pm75 °FPassing clouds.9 mph44%30.18 "HgN/A
2:50 pm73 °FPassing clouds.6 mph47%30.18 "HgN/A
2:20 pm73 °FPassing clouds.8 mph50%30.18 "HgN/A
1:50 pm73 °FPassing clouds.9 mph47%30.18 "HgN/A
1:20 pm72 °FPassing clouds.8 mph53%30.18 "HgN/A
12:50 pm70 °FScattered clouds.8 mph57%30.18 "HgN/A
12:20 pm70 °FScattered clouds.7 mph60%30.18 "HgN/A
11:50 am70 °FScattered clouds.8 mph60%30.15 "HgN/A
11:20 am70 °FScattered clouds.8 mph64%30.15 "HgN/A
10:50 am68 °FPassing clouds.7 mph73%30.15 "HgN/A
10:20 am68 °FScattered clouds.6 mph73%30.15 "HgN/A
9:50 am66 °FPassing clouds.6 mph78%30.15 "HgN/A
9:20 am64 °FPassing clouds.7 mph78%30.12 "HgN/A
8:50 am63 °FPassing clouds.7 mph83%30.12 "HgN/A
8:20 am63 °FPassing clouds.7 mph83%30.12 "HgN/A
7:50 am61 °FPassing clouds.7 mph88%30.09 "HgN/A
7:20 am59 °FScattered clouds.6 mph94%30.09 "HgN/A
6:50 am59 °FScattered clouds.6 mph88%30.09 "HgN/A
6:20 am59 °FScattered clouds.7 mph88%30.07 "HgN/A
5:50 am59 °FPassing clouds.8 mph88%30.07 "HgN/A
5:20 am59 °FPassing clouds.8 mph88%30.07 "HgN/A
4:50 am59 °FClear.9 mph88%30.04 "Hg10 mi
4:20 am59 °FClear.8 mph88%30.04 "Hg10 mi
3:50 am61 °FClear.9 mph83%30.04 "Hg10 mi
3:20 am61 °FClear.12 mph83%30.04 "Hg10 mi
Weather by CustomWeather, © 2019

See weather overview